Regional Weather Roundup
Issued by NWS Cleveland, OH

Home | Current Version | Previous Version | Graphics & Text | Print | Product List | Glossary On
Versions: 1 2 3 4 5 6 7 8 9 10 11 12 13 14 15 16 17 18 19 20 21 22 23 24 25 26 27 28 29 30 31 32 33 34 35 36 37 38 39 40 41 42 43 44 45 46 47 48 49 50
000
ASUS41 KCLE 250310
RWRCLE
OHIO REGIONAL WEATHER ROUNDUP
NATIONAL WEATHER SERVICE WILMINGTON, OH
1000 PM EST FRI NOV 24 2017

NOTE: "FAIR" INDICATES FEW OR NO CLOUDS BELOW 12,000 FEET WITH NO
SIGNIFICANT WEATHER AND/OR OBSTRUCTIONS TO VISIBILITY.

OHZ001>008-015>018-024>027-034-035-043-044-250400-
   NORTHWEST OHIO

CITY           SKY/WX    TMP DP  RH WIND       PRES   REMARKS
DEFIANCE       MOCLDY    47  31  53 SW14G23   29.62R
FINDLAY        FAIR      49  29  46 S20G26    29.63F
TOLEDO EXPRESS FAIR      50  32  50 SW15G26   29.61R
TOLEDO EXEC    FAIR      49  30  48 S17       29.61F
LIMA           FAIR      49  29  46 S18G25    29.64F
$$

OHZ009>014-019>023-028>033-038-089-250400-
   NORTHEAST OHIO

CITY           SKY/WX    TMP DP  RH WIND       PRES   REMARKS
CLE-HOPKINS    CLOUDY    50  25  37 S18G28    29.68F
CLE-LAKEFRONT  FAIR      52  23  32 S26G35    29.64F
CUY CO. ARPT   CLOUDY    52  25  35 S17G28    29.66F
LORAIN-ELYRIA  FAIR      50  23  34 S18G24    29.66F
ASHTABULA      FAIR      47  23  38 S20G28    29.68F
AKRON-CANTON   MOCLDY    47  23  38 S15       29.74F
WOOSTER        FAIR      46  25  43 S12       29.72F
MANSFIELD      FAIR      48  27  44 S21G30    29.69F
YOUNGSTOWN     FAIR      45  22  40 S10       29.73F
$$

OHZ042-051>053-060>062-070>072-077>081-250400-
  SOUTHWEST OHIO

CITY           SKY/WX    TMP DP  RH WIND       PRES   REMARKS
CINC-COVINGTON MOCLDY    50  27  40 S13       29.74F
CINC-LUNKEN    FAIR      50  29  44 S14       29.77F
HAMILTON       FAIR      53  28  38 VRB7      29.75F
DAYTON         FAIR      50  28  42 S20G26    29.71F
WRIGHT-PAT AFB CLOUDY    51  24  34 S14       29.72F
DAYTON GENERAL FAIR      50  27  40 S16       29.72F
WILMINGTON     FAIR      47  30  51 S15       29.75F
$$

OHZ036-037-039>041-045>050-054>059-063>069-073>076-082>088-250400-
  CENTRAL AND SOUTHEAST OHIO

CITY           SKY/WX    TMP DP  RH WIND       PRES   REMARKS
COLUMBUS       MOCLDY    48  26  42 S9        29.75F
OSU AIRPORT    FAIR      47  27  45 S13       29.73F
BOLTON FIELD   FAIR      47  28  46 S13       29.76F
RICKENBACK AFB FAIR      46  26  45 S12       29.76F
NEWARK         FAIR      47  24  40 S5        29.76F
MARION         FAIR      48  27  44 S17       29.70F
LANCASTER      FAIR      50  26  39 S8        29.77F
ZANESVILLE     FAIR      47  22  37 S10       29.78F
NEW PHILLY     FAIR      47  23  38 VRB5      29.78F
$$




USA.gov is the U.S. government's official web portal to all federal, state and local government web resources and services.